Tracking 30306 objects as of 23-Apr-2025
HD Live streaming from Space Station
objects crossing your sky now

NADEZHDA 6

Track NADEZHDA 6 now!
10-day predictions
NADEZHDA 6 is classified as:


NORAD ID: 26384
Int'l Code: 2000-033A
Perigee: 658.7 km
Apogee: 675.2 km
Inclination: 97.8 °
Period: 97.9 minutes
Semi major axis: 7037 km
RCS: 1.836 m2 (large)
Launch date: June 28, 2000
Source: Commonwealth of Independent States (former USSR) (CIS)
Launch site: PLESETSK MISSILE AND SPACE COMPLEX (PKMTR)

Search and rescue; part of COSPAS/SARSAT fleet.
Your satellite tracking list
Your tracking list is empty




NASA's NSSDC Master Catalog

Two Line Element Set (TLE):
1 26384U 00033A   25112.95208079  .00001726  00000-0  29272-3 0  9991
2 26384  97.7971 100.1201 0011748 258.8939 101.0947 14.70392349326415
Source of the keplerian elements: AFSPC